FW7817 Weather Reports


Display with metric or nautical units.
time (UTC)temp
F
wind
direction
speed
MPH
gust
MPH
rain 1hr
in
rain 24hr
in
rain mn
in
humidity
%
barometer
mb
20260503024304 53 255 0.0 0.0 0.00 0.00 0.00 53 1019.3
20260503022745 55 255 0.0 0.0 0.00 0.00 0.00 52 1019.3
20260503022240 55 255 0.0 0.0 0.00 0.00 0.00 52 1019.3
20260503021734 55 255 0.0 0.0 0.00 0.00 0.00 51 1019.3
20260503021228 56 255 0.0 0.0 0.00 0.00 0.00 51 1019.4
20260503020215 56 255 0.0 0.0 0.00 0.00 0.00 50 1019.3
20260503015710 56 255 0.0 0.0 0.00 0.00 0.00 50 1019.3
20260503015205 57 255 0.0 0.0 0.00 0.00 0.00 50 1019.4
20260503014658 57 255 0.0 0.0 0.00 0.00 0.00 49 1019.3
20260503014152 56 255 0.0 0.0 0.00 0.00 0.00 46 1019.3
20260503013646 56 255 0.0 0.0 0.00 0.00 0.00 47 1019.2
20260503013145 57 255 0.0 0.0 0.00 0.00 0.00 45 1019.2
20260503012634 58 255 0.0 0.0 0.00 0.00 0.00 45 1019.2
20260503012128 58 255 0.0 0.0 0.00 0.00 0.00 44 1019.2
20260503011621 59 255 0.0 0.0 0.00 0.00 0.00 41 1019.2
20260503011116 59 255 0.0 0.0 0.00 0.00 0.00 40 1019.3
20260503010610 60 255 0.0 0.0 0.00 0.00 0.00 40 1019.2
20260503010106 60 255 0.0 0.0 0.00 0.00 0.00 40 1019.2
20260503005051 61 255 0.0 0.0 0.00 0.00 0.00 39 1019.2
20260503004546 61 255 0.0 0.0 0.00 0.00 0.00 39 1019.2
20260503004040 62 255 0.0 2.0 0.00 0.00 0.00 38 1019.2
20260503003028 62 255 0.0 2.0 0.00 0.00 0.00 37 1019.2
20260503002521 62 255 0.0 2.0 0.00 0.00 0.00 36 1019.2
20260503001510 63 255 0.0 3.0 0.00 0.00 0.00 35 1019.3
20260503001004 63 255 1.0 3.0 0.00 0.00 0.00 36 1019.4
20260503000457 63 256 0.0 2.0 0.00 0.00 0.00 36 1019.5
20260502235952 63 256 0.0 2.0 0.00 0.00 0.00 36 1019.5
20260502235445 63 248 0.0 2.0 0.00 0.00 0.00 36 1019.5
20260502234941 63 248 0.0 3.0 0.00 0.00 0.00 33 1019.5
20260502234434 64 248 1.0 4.0 0.00 0.00 0.00 33 1019.5
20260502233422 64 309 1.0 6.0 0.00 0.00 0.00 34 1019.8
20260502232916 64 221 1.0 6.0 0.00 0.00 0.00 34 1019.8
20260502232410 64 229 1.0 2.0 0.00 0.00 0.00 34 1019.9
20260502231904 64 226 1.0 3.0 0.00 0.00 0.00 33 1019.9
20260502231358 64 232 1.0 4.0 0.00 0.00 0.00 31 1019.9
20260502230852 65 229 1.0 4.0 0.00 0.00 0.00 35 1020.0
20260502230346 64 244 1.0 4.0 0.00 0.00 0.00 34 1019.9
20260502225840 64 274 1.0 4.0 0.00 0.00 0.00 34 1020.0
20260502225333 65 211 2.0 4.0 0.00 0.00 0.00 35 1020.0
20260502224828 65 277 2.0 9.0 0.00 0.00 0.00 34 1020.0
20260502224322 65 231 3.0 9.0 0.00 0.00 0.00 34 1020.1
20260502223815 65 258 2.0 6.0 0.00 0.00 0.00 32 1020.0
20260502223310 65 233 2.0 7.0 0.00 0.00 0.00 33 1020.0
20260502222804 65 257 1.0 7.0 0.00 0.00 0.00 33 1020.0
20260502221753 65 238 2.0 7.0 0.00 0.00 0.00 36 1020.0
20260502221246 65 261 1.0 4.0 0.00 0.00 0.00 33 1020.1
20260502220246 65 322 1.0 4.0 0.00 0.00 0.00 33 1020.1
20260502215744 65 307 1.0 3.0 0.00 0.00 0.00 35 1020.3
20260502215244 65 333 1.0 4.0 0.00 0.00 0.00 34 1020.2
20260502214742 65 263 2.0 5.0 0.00 0.00 0.00 34 1020.3
20260502214242 65 227 3.0 8.0 0.00 0.00 0.00 32 1020.4
20260502213743 65 294 2.0 8.0 0.00 0.00 0.00 30 1020.5
20260502212742 66 301 1.0 4.0 0.00 0.00 0.00 29 1020.6
20260502212242 66 315 1.0 4.0 0.00 0.00 0.00 37 1020.7
20260502211742 65 297 1.0 4.0 0.00 0.00 0.00 33 1020.7
20260502211242 65 272 1.0 3.0 0.00 0.00 0.00 31 1020.8
20260502210741 65 318 2.0 8.0 0.00 0.00 0.00 33 1020.8
20260502210241 65 5 3.0 9.0 0.00 0.00 0.00 33 1020.9
20260502205741 65 309 2.0 9.0 0.00 0.00 0.00 32 1021.0
20260502204741 66 271 2.0 5.0 0.00 0.00 0.00 34 1021.0
20260502204241 66 244 2.0 4.0 0.00 0.00 0.00 35 1021.1
20260502203742 66 279 1.0 4.0 0.00 0.00 0.00 32 1021.1
20260502203239 66 316 1.0 4.0 0.00 0.00 0.00 37 1021.1
20260502202740 65 51 1.0 4.0 0.00 0.00 0.00 35 1021.2
20260502201240 66 227 2.0 6.0 0.00 0.00 0.00 36 1021.3
20260502200738 65 317 2.0 6.0 0.00 0.00 0.00 34 1021.4
20260502200235 64 332 2.0 6.0 0.00 0.00 0.00 33 1021.3
20260502195736 64 90 2.0 5.0 0.00 0.00 0.00 33 1021.3
20260502195236 64 301 2.0 9.0 0.00 0.00 0.00 38 1021.5
20260502194736 65 309 2.0 9.0 0.00 0.00 0.00 40 1021.6
20260502194235 65 294 2.0 9.0 0.00 0.00 0.00 34 1021.6
20260502193734 65 290 2.0 9.0 0.00 0.00 0.00 45 1021.7
20260502193233 64 290 2.0 8.0 0.00 0.00 0.00 37 1021.7
20260502192733 64 345 1.0 5.0 0.00 0.00 0.00 41 1021.7
20260502191727 63 244 3.0 10.0 0.00 0.00 0.00 40 1021.9
20260502191221 64 317 2.0 10.0 0.00 0.00 0.00 35 1021.9
20260502185702 63 305 2.0 10.0 0.00 0.00 0.00 44 1022.1
20260502185156 63 340 2.0 7.0 0.00 0.00 0.00 43 1022.2
20260502184651 63 151 2.0 7.0 0.00 0.00 0.00 40 1022.1
20260502184145 62 232 2.0 7.0 0.00 0.00 0.00 40 1022.2
20260502183638 62 103 2.0 6.0 0.00 0.00 0.00 34 1022.3
20260502183133 63 192 1.0 6.0 0.00 0.00 0.00 41 1022.4
20260502182626 63 295 1.0 4.0 0.00 0.00 0.00 45 1022.5
20260502182121 63 22 2.0 9.0 0.00 0.00 0.00 43 1022.7
20260502181615 62 289 2.0 9.0 0.00 0.00 0.00 43 1022.6
20260502181111 61 245 2.0 6.0 0.00 0.00 0.00 36 1022.8
20260502180603 61 199 2.0 5.0 0.00 0.00 0.00 42 1022.8
20260502170451 60 309 2.0 8.0 0.00 0.00 0.00 38 1023.5
20260502163922 60 279 2.0 7.0 0.00 0.00 0.00 41 1023.6
20260502162908 62 5 2.0 8.0 0.00 0.00 0.00 37 1023.7
20260502162403 62 355 2.0 8.0 0.00 0.00 0.00 41 1023.7
20260502161856 62 344 2.0 9.0 0.00 0.00 0.00 37 1023.7
20260502160338 61 309 2.0 7.0 0.00 0.00 0.00 39 1023.5
20260502152251 59 40 1.0 4.0 0.00 0.00 0.00 43 1023.4
20260502151248 58 257 2.0 9.0 0.00 0.00 0.00 43 1023.4
20260502150750 58 286 2.0 9.0 0.00 0.00 0.00 40 1023.4
20260502150249 58 316 1.0 4.0 0.00 0.00 0.00 44 1023.5
20260502130740 42 314 1.0 5.0 0.00 0.00 0.00 76 1023.2
20260502130241 41 305 1.0 5.0 0.00 0.00 0.00 78 1023.2
20260502123736 38 246 0.0 2.0 0.00 0.00 0.00 82 1023.0
20260502122738 37 248 0.0 3.0 0.00 0.00 0.00 82 1022.8
20260502122232 37 244 0.0 2.0 0.00 0.00 0.00 82 1022.7
20260502121733 37 309 0.0 2.0 0.00 0.00 0.00 82 1022.8
20260502121231 36 309 0.0 1.0 0.00 0.00 0.00 82 1022.7
20260502120731 36 324 0.0 1.0 0.00 0.00 0.00 82 1022.7
20260502120231 36 324 0.0 1.0 0.00 0.00 0.00 81 1022.7
20260502115731 36 324 0.0 1.0 0.00 0.00 0.00 81 1022.6
20260502115230 36 324 0.0 0.0 0.00 0.00 0.00 81 1022.5
20260502114728 36 324 0.0 0.0 0.00 0.00 0.00 81 1022.4
20260502114226 36 324 0.0 0.0 0.00 0.00 0.00 80 1022.3
20260502113726 36 324 0.0 1.0 0.00 0.00 0.00 80 1022.2
20260502113223 36 324 0.0 1.0 0.00 0.00 0.00 80 1022.3
20260502112721 36 324 0.0 0.0 0.00 0.00 0.00 80 1022.2
20260502111719 37 324 0.0 0.0 0.00 0.00 0.00 79 1022.0
20260502111216 37 324 0.0 0.0 0.00 0.00 0.00 79 1022.0
20260502110716 37 324 0.0 0.0 0.00 0.00 0.00 79 1022.0
20260502110216 37 324 0.0 0.0 0.00 0.00 0.00 79 1022.0
20260502105711 37 324 0.0 1.0 0.00 0.00 0.00 79 1022.0
20260502105203 37 324 0.0 1.0 0.00 0.00 0.00 78 1022.0
20260502103645 37 324 0.0 0.0 0.00 0.00 0.00 78 1021.9
20260502103140 37 324 0.0 0.0 0.00 0.00 0.00 78 1022.0
20260502102634 38 324 0.0 0.0 0.00 0.00 0.00 77 1021.9
20260502102127 38 324 0.0 0.0 0.00 0.00 0.00 77 1021.9
20260502101622 38 324 0.0 0.0 0.00 0.00 0.00 77 1021.8
20260502101116 38 324 0.0 0.0 0.00 0.00 0.00 77 1021.8
20260502100609 38 324 0.0 0.0 0.00 0.00 0.00 77 1021.8
20260502100104 38 324 0.0 0.0 0.00 0.00 0.00 77 1021.8
20260502091004 39 324 0.0 1.0 0.00 0.00 0.00 73 1021.7
20260502090500 39 324 0.0 0.0 0.00 0.00 0.00 72 1021.6
20260502071412 44 324 0.0 0.0 0.00 0.00 0.00 59 1021.4
20260502070910 44 324 0.0 0.0 0.00 0.00 0.00 58 1021.3
20260502070408 44 324 0.0 0.0 0.00 0.00 0.00 58 1021.4
20260502065912 45 324 0.0 0.0 0.00 0.00 0.00 57 1021.4
20260502065405 45 324 0.0 0.0 0.00 0.00 0.00 56 1021.5
20260502064858 45 324 0.0 0.0 0.00 0.00 0.00 56 1021.5
20260502063847 45 324 0.0 1.0 0.00 0.00 0.00 56 1021.5
20260502063340 45 324 0.0 1.0 0.00 0.00 0.00 55 1021.6
20260502062835 45 324 0.0 0.0 0.00 0.00 0.00 55 1021.5
20260502062328 45 324 0.0 2.0 0.00 0.00 0.00 55 1021.5
20260502061822 46 324 0.0 2.0 0.00 0.00 0.00 55 1021.5
20260502061317 46 325 0.0 0.0 0.00 0.00 0.00 56 1021.4
20260502060811 46 325 0.0 0.0 0.00 0.00 0.00 54 1021.5
20260502060304 46 325 0.0 0.0 0.00 0.00 0.00 55 1021.4
20260502055759 47 325 0.0 0.0 0.00 0.00 0.00 54 1021.4
20260502055252 47 325 0.0 0.0 0.00 0.00 0.00 54 1021.4
20260502054748 47 325 0.0 0.0 0.00 0.00 0.00 54 1021.4
20260502054243 47 325 0.0 0.0 0.00 0.00 0.00 54 1021.3
20260502053739 48 325 0.0 0.0 0.00 0.00 0.00 54 1021.3
20260502053237 48 325 0.0 0.0 0.00 0.00 0.00 54 1021.3
20260502052737 48 325 0.0 0.0 0.00 0.00 0.00 53 1021.3
20260502052237 48 325 0.0 1.0 0.00 0.00 0.00 51 1021.3
20260502051737 48 325 0.0 1.0 0.00 0.00 0.00 51 1021.3
20260502051237 49 325 0.0 1.0 0.00 0.00 0.00 51 1021.3
20260502050739 49 325 0.0 1.0 0.00 0.00 0.00 51 1021.3
20260502050239 49 325 0.0 2.0 0.00 0.00 0.00 51 1021.2
20260502045737 49 325 0.0 2.0 0.00 0.00 0.00 51 1021.1
20260502044727 49 315 0.0 2.0 0.00 0.00 0.00 51 1021.1
20260502044220 50 315 0.0 2.0 0.00 0.00 0.00 50 1021.0
20260502043714 50 315 0.0 2.0 0.00 0.00 0.00 50 1021.1
20260502043208 50 47 0.0 2.0 0.00 0.00 0.00 50 1021.0
20260502042706 50 5 0.0 2.0 0.00 0.00 0.00 50 1021.0
20260502041651 51 5 0.0 2.0 0.00 0.00 0.00 50 1021.0
20260502041146 51 350 0.0 2.0 0.00 0.00 0.00 50 1020.9
20260502040639 51 355 1.0 2.0 0.00 0.00 0.00 50 1021.0
20260502040132 51 355 1.0 3.0 0.00 0.00 0.00 49 1020.9
20260502035627 51 340 1.0 3.0 0.00 0.00 0.00 50 1020.9
20260502035120 51 59 1.0 3.0 0.00 0.00 0.00 50 1020.9
20260502034613 52 344 1.0 3.0 0.00 0.00 0.00 50 1020.9
20260502034108 52 355 1.0 3.0 0.00 0.00 0.00 50 1020.8
20260502033603 52 339 0.0 3.0 0.00 0.00 0.00 51 1020.8
20260502033056 52 304 0.0 3.0 0.00 0.00 0.00 51 1020.7
20260502032550 53 279 1.0 3.0 0.00 0.00 0.00 51 1020.8
20260502032044 53 308 1.0 3.0 0.00 0.00 0.00 51 1020.7
20260502031537 53 339 1.0 3.0 0.00 0.00 0.00 52 1020.7
20260502031032 53 355 1.0 3.0 0.00 0.00 0.00 52 1020.6
20260502030526 53 329 1.0 3.0 0.00 0.00 0.00 53 1020.6
20260502025514 53 293 1.0 3.0 0.00 0.00 0.00 54 1020.4
20260502025008 54 279 1.0 3.0 0.00 0.00 0.00 53 1020.3